Regional Weather Roundup
Issued by NWS

Home | Current Version | Previous Version | Graphics & Text | Print | Product List | Glossary Off
Versions: 1 2 3 4 5 6 7 8 9 10 11 12 13 14 15 16 17 18 19 20 21 22 23 24 25 26 27 28 29 30 31 32 33 34 35 36 37 38 39 40 41 42 43 44 45 46 47 48 49 50

000
ASUS43 KMKX 250800
RWRWI

WISCONSIN REGIONAL WEATHER ROUNDUP
NATIONAL WEATHER SERVICE MILWAUKEE/SULLIVAN WI
300 AM CDT MON JUL 25 2016

NOTE: "FAIR" INDICATES FEW OR NO CLOUDS BELOW 12,000 FEET WITH NO
SIGNIFICANT WEATHER AND/OR OBSTRUCTIONS TO VISIBILITY.

WIZ001-002-006>008-014>016-023>028-250900-
NORTHWEST WISCONSIN

CITY           SKY/WX    TMP DP  RH WIND       PRES   REMARKS
SUPERIOR ARPT  CLEAR     62  61  96 S6        29.93R
ASHLAND        CLEAR     66  61  84 SW8       29.92R
HAYWARD        CLEAR     61  59  93 S5        29.96R
SIREN          NOT AVBL
CUMBERLAND     CLEAR     63  59  88 W5        29.98R
RICE LAKE      CLEAR     64  60  86 CALM      29.99R
CHETEK         CLEAR     67  62  84 CALM      29.97R
LADYSMITH      CLEAR     66  62  87 CALM      29.98R
EAU CLAIRE     NOT AVBL
MENOMONIE      CLEAR     68  62  80 W5        29.98R
NEW RICHMOND   CLEAR     64  59  85 W5        29.99S
OSCEOLA        CLEAR     64  59  86 CALM      30.01R
$$

WIZ003>005-009-010-017-018-250900-
NORTH CENTRAL WISCONSIN

CITY           SKY/WX    TMP DP  RH WIND       PRES   REMARKS
MANITOWISH WTR CLEAR     63  63  97 W6        29.94R
ARBOR VITAE    CLEAR     64  61  88 CALM      29.95R
WOODRUFF       CLEAR     64  61  88 CALM      29.95R
RHINELANDER    CLEAR     62  59  90 W7        29.96R
EAGLE RIVER    CLEAR     64  59  83 W7        29.94R
LAND O LAKES   CLEAR     64  59  85 W3        29.94R
PHILLIPS       CLEAR     62  61  97 CALM      29.96R
TOMAHAWK       CLEAR     61  58  90 W5        29.96R
MEDFORD        CLEAR     63  63 100 W5        29.98R
MERRILL        CLEAR     62  61  97 W3        29.97R
$$

WIZ029-030-035-036-043>047-250900-
CENTRAL WISCONSIN

CITY           SKY/WX    TMP DP  RH WIND       PRES   REMARKS
WAUSAU         CLEAR     66  62  87 CALM      29.95R
MOSINEE        CLEAR     63  61  94 W6        29.98R
MARSHFIELD     CLEAR     63  60  90 W6        29.98R
STEVENS POINT  CLEAR     65  62  87 W5        29.98R
WAUPACA        PTCLDY    69  66  89 W6        29.95S
WAUTOMA        PTCLDY    66  63  90 W6        29.97S
WISC RAPIDS    CLEAR     65  61  87 W6        29.98S
CAMP DOUGLAS   NOT AVBL
$$

WIZ011>013-019>022-031-037>040-048>050-250900-
NORTHEAST WISCONSIN

CITY           SKY/WX    TMP DP  RH WIND       PRES   REMARKS
ANTIGO         CLEAR     60  60  98 CALM      29.97R
SHAWANO        CLEAR     69  63  81 W6        29.93S
OCONTO         CLEAR     68  68 100 W6        29.89S
STURGEON BAY   PTCLDY    71  66  84 W7        29.90S
GREEN BAY      PTCLDY    67  66  97 W7        29.92R
MANITOWOC      NOT AVBL
APPLETON       CLOUDY    68  61  77 W8        29.93R
CLINTONVILLE   CLEAR     64  61  88 W5        29.93S
OSHKOSH        MOCLDY    71  64  78 W8        29.94R
$$

WIZ032>034-041-042-053>061-250900-
SOUTHWEST WISCONSIN

CITY           SKY/WX    TMP DP  RH WIND       PRES   REMARKS
LA CROSSE      CLEAR     70  64  81 S3        29.99R
SPARTA         CLEAR     62  62  98 CALM      30.00S
VIROQUA        CLEAR     65  64  98 SW5       30.03S
BOSCOBEL       CLOUDY    67  66  97 CALM      30.00F
PRAIRIE DU CHI PTCLDY    69  65  86 CALM      30.01F
PLATTEVILLE    CLOUDY    69  69  99 NW3       30.01S
$$

WIZ056-057-062-063-064-067-068-250900-
SOUTH CENTRAL WISCONSIN

CITY           SKY/WX    TMP DP  RH WIND       PRES   REMARKS
REEDSBURG      CLOUDY    68  66  93 W5        29.98F
BARABOO/DELLS  CLOUDY    69  64  84 W5        29.98S
LONE ROCK      NOT AVBL
MINERAL POINT  CLOUDY    70  68  94 NW5       30.01R
MADISON        CLOUDY    72  66  81 NW3       29.97R
MIDDLETON      CLOUDY    71  66  85 W5        29.99R
WATERTOWN      CLOUDY    72  67  85 CALM      29.97R
MONROE         CLOUDY    72  64  78 NW5       29.99R
JANESVILLE     CLOUDY    72  70  94 NW3       29.98R
$$

WIZ051-052-058>065-066-070>072-250900-
SOUTHEAST WISCONSIN

CITY           SKY/WX    TMP DP  RH WIND       PRES   REMARKS
MILWAUKEE      CLOUDY    79  65  62 W6        29.95S HX  81
WAUKESHA       CLOUDY    72  63  73 W7        29.98R
MILWAUKEE/TIMM CLOUDY    73  63  68 W5        29.96R
RACINE         CLOUDY    76  66  71 NW6       29.96S
BURLINGTON     CLOUDY    71  69  90 SW3       29.97S
KENOSHA        CLOUDY    74  68  81 W7        29.97R
FOND DU LAC    CLOUDY    72  64  76 W7        29.95R
SHEBOYGAN      CLOUDY    72  64  76 W5        29.93R
WEST BEND      CLOUDY    72  63  73 CALM      29.96R
JUNEAU         CLOUDY    71  64  79 CALM      29.97S
$$

LSZ147-162-250900-
LAKE SUPERIOR

STATION/POSITION TIME  TEMP    WIND        PRES    WAVE
                       AIR SEA DIR/SP/G            HT/PER
                 (UTC) (F)     (DEG/KT/KT) (MB)    (FT/S)
W MID LAKE BUOY  0650   64 59  250/ 14/ 16 1009.2R   2/ 4
DEVILS ISLAND    0700   65     240/ 14/ 16 1011.2R
SAXON HARBOR     0740   69     210/  6/  9 1012.2R
$$

LMZ867-665-643>646-250900-
LAKE MICHIGAN

STATION/POSITION TIME  TEMP    WIND        PRES    WAVE
                       AIR SEA DIR/SP/G            HT/PER
                 (UTC) (F)     (DEG/KT/KT) (MB)    (FT/S)
CHAMBERS ISLAND  0700   70     200/  3/  6 1011.5R
N MID LAKE BUOY  0650   70 68  250/  4/  6 1009.9R   2/ 6
NORTHPORT PIER   0700   72     270/  3/  6 1011.2R
KEWAUNEE LAKESHO 0700   72     290/  4/  6 1012.0R
SHEBOYGAN LAKESH 0700   76     290/  8/ 10 1012.9R
PORT WASHINGTON  0740   76     280/  4/  6 1014.6R
MILWAUKEE LAKESH 0710   78     320/  4/  4   N/A
S MID LAKE BUOY  0650   74 73  230/  8/ 10 1012.6R   2/ 5
KENOSHA   LAKESH 0700   79     270/  7/  9 1013.5S
$$

TC  - TEMPERATURE IN CELSIUS
VSB - VISIBILITY IN STATUTE MILES
WCI - WIND CHILL INDEX
HX  - HEAT INDEX





USA.gov is the U.S. government's official web portal to all federal, state and local government web resources and services.